,,,PA_Meas_PMT16A,,PR_Meas_QMR101_102,,RH_Meas_QMH101,,SR_Meas_QMS101,,TA_Meas_QMH101,,GenWind,,GenWind,
date,time,status,PA,status,PR,status,RH,status,SR,status,TA,status,DirAvg,status,SpdAvg,
2010-08-13, 00:00:04,VALID,1000.87,VALID,0,VALID,87.6491,VALID,0,VALID,23.35,VALID,343,VALID,0.859375,
2010-08-13, 00:01:04,VALID,1000.86,VALID,0,VALID,87.8398,VALID,0,VALID,23.2915,VALID,37,VALID,1.31094,
2010-08-13, 00:02:04,VALID,1000.86,VALID,0,VALID,88.1297,VALID,0,VALID,23.1921,VALID,39,VALID,1.70078,
2010-08-13, 00:03:04,VALID,1000.87,VALID,0,VALID,88.3968,VALID,0,VALID,23.1354,VALID,35,VALID,1.67109,
2010-08-13, 00:04:04,VALID,1000.89,VALID,0,VALID,88.4197,VALID,0,VALID,23.1159,VALID,58,VALID,1.15937,
2010-08-13, 00:05:04,VALID,1000.87,VALID,0,VALID,88.3739,VALID,0,VALID,23.1176,VALID,41,VALID,1.16406,
2010-08-13, 00:06:04,VALID,1000.88,VALID,0,VALID,88.1603,VALID,0,VALID,23.1159,VALID,36,VALID,0.398828,
2010-08-13, 00:07:04,VALID,1000.87,VALID,0,VALID,88.1221,VALID,0,VALID,23.1549,VALID,36,VALID,0.44375,
2010-08-13, 00:08:04,VALID,1000.88,VALID,0,VALID,88.2518,VALID,0,VALID,23.1549,VALID,348,VALID,0.588672,
2010-08-13, 00:09:04,VALID,1000.85,VALID,0,VALID,88.0763,VALID,0,VALID,23.1939,VALID,35,VALID,1.51797,
2010-08-13, 00:10:04,VALID,1000.85,VALID,0,VALID,87.7788,VALID,0,VALID,23.2329,VALID,7,VALID,0.961328,
2010-08-13, 00:11:04,VALID,1000.81,VALID,0,VALID,87.7635,VALID,0,VALID,23.2329,VALID,11,VALID,1.37852,
2010-08-13, 00:12:04,VALID,1000.77,VALID,0,VALID,87.9314,VALID,0,VALID,23.2329,VALID,4,VALID,1.15195,
2010-08-13, 00:13:04,VALID,1000.75,VALID,0,VALID,88.1755,VALID,0,VALID,23.2329,VALID,357,VALID,1.38359,
2010-08-13, 00:14:04,VALID,1000.73,VALID,0,VALID,87.9924,VALID,0,VALID,23.2719,VALID,3,VALID,1.32617,
2010-08-13, 00:15:04,VALID,1000.72,VALID,0,VALID,88,VALID,0,VALID,23.2719,VALID,351,VALID,1.29258,
2010-08-13, 00:16:04,VALID,1000.72,VALID,0,VALID,87.9695,VALID,0,VALID,23.311,VALID,347,VALID,1.23711,
2010-08-13, 00:17:04,VALID,1000.74,VALID,0,VALID,87.8398,VALID,0,VALID,23.35,VALID,345,VALID,0.810547,
2010-08-13, 00:18:04,VALID,1000.74,VALID,0,VALID,87.8551,VALID,0,VALID,23.3695,VALID,345,VALID,0.689062,
2010-08-13, 00:19:04,VALID,1000.74,VALID,0,VALID,87.6338,VALID,0,VALID,23.4085,VALID,345,VALID,0.498437,
2010-08-13, 00:20:04,VALID,1000.74,VALID,0,VALID,87.6033,VALID,0,VALID,23.4085,VALID,355,VALID,0.771094,
2010-08-13, 00:21:04,VALID,1000.75,VALID,0,VALID,87.5194,VALID,0,VALID,23.428,VALID,355,VALID,0.924219,
2010-08-13, 00:22:04,VALID,1000.75,VALID,0,VALID,87.1989,VALID,0,VALID,23.4458,VALID,354,VALID,1.01523,
2010-08-13, 00:23:04,VALID,1000.73,VALID,0,VALID,86.9777,VALID,0,VALID,23.5256,VALID,352,VALID,0.976563,
2010-08-13, 00:24:04,VALID,1000.74,VALID,0,VALID,87.0387,VALID,0,VALID,23.5646,VALID,352,VALID,0.582812,
2010-08-13, 00:25:04,VALID,1000.77,VALID,0,VALID,87.321,VALID,0,VALID,23.5256,VALID,352,VALID,0.340234,
2010-08-13, 00:26:04,VALID,1000.81,VALID,0,VALID,87.321,VALID,0,VALID,23.5061,VALID,350,VALID,0.276953,
2010-08-13, 00:27:04,VALID,1000.85,VALID,0,VALID,87.382,VALID,0,VALID,23.5061,VALID,350,VALID,0.291406,
2010-08-13, 00:28:04,VALID,1000.87,VALID,0,VALID,87.527,VALID,0,VALID,23.4866,VALID,350,VALID,0.752344,
2010-08-13, 00:29:04,VALID,1000.91,VALID,0,VALID,87.1989,VALID,0,VALID,23.4671,VALID,153,VALID,1.2,
2010-08-13, 00:30:04,VALID,1000.92,VALID,0,VALID,87.5423,VALID,0,VALID,23.428,VALID,133,VALID,2.39492,
2010-08-13, 00:31:04,VALID,1000.93,VALID,0,VALID,87.9085,VALID,0,VALID,23.3695,VALID,118,VALID,2.17031,
2010-08-13, 00:32:04,VALID,1000.94,VALID,0,VALID,87.5423,VALID,0,VALID,23.3695,VALID,100,VALID,1.75742,
2010-08-13, 00:33:04,VALID,1000.93,VALID,0,VALID,87.2066,VALID,0,VALID,23.428,VALID,102,VALID,1.49102,
2010-08-13, 00:34:04,VALID,1000.94,VALID,0,VALID,86.8861,VALID,0,VALID,23.4866,VALID,119,VALID,1.13906,
2010-08-13, 00:35:04,VALID,1000.96,VALID,0,VALID,86.6572,VALID,0,VALID,23.5043,VALID,130,VALID,1.08242,
2010-08-13, 00:36:04,VALID,1000.95,VALID,0,VALID,86.5199,VALID,0,VALID,23.5256,VALID,130,VALID,1.13555,
2010-08-13, 00:37:04,VALID,1000.99,VALID,0,VALID,86.5657,VALID,0,VALID,23.5256,VALID,133,VALID,0.995703,
2010-08-13, 00:38:04,VALID,1000.95,VALID,0,VALID,86.8098,VALID,0,VALID,23.4866,VALID,134,VALID,0.927344,
2010-08-13, 00:39:04,VALID,1000.94,VALID,0,VALID,86.9929,VALID,0,VALID,23.4671,VALID,134,VALID,0.816797,
2010-08-13, 00:40:04,VALID,1000.94,VALID,0,VALID,87.115,VALID,0,VALID,23.428,VALID,134,VALID,0.595312,
2010-08-13, 00:41:04,VALID,1000.95,VALID,0,VALID,87.2905,VALID,0,VALID,23.428,VALID,165,VALID,0.651953,
2010-08-13, 00:42:04,VALID,1000.93,VALID,0,VALID,87.382,VALID,0,VALID,23.4085,VALID,165,VALID,0.475391,
2010-08-13, 00:43:04,VALID,1000.91,VALID,0,VALID,87.3897,VALID,0,VALID,23.4085,VALID,165,VALID,0.186719,
2010-08-13, 00:44:04,VALID,1000.87,VALID,0,VALID,87.5575,VALID,0,VALID,23.3677,VALID,165,VALID,0.00195313,
2010-08-13, 00:45:04,VALID,1000.8,VALID,0,VALID,87.5117,VALID,0,VALID,23.3695,VALID,16,VALID,1.13984,
2010-08-13, 00:46:04,VALID,1000.79,VALID,0,VALID,87.466,VALID,0,VALID,23.389,VALID,15,VALID,1.58711,
2010-08-13, 00:47:04,VALID,1000.84,VALID,0,VALID,87.5117,VALID,0,VALID,23.3695,VALID,353,VALID,0.953516,
2010-08-13, 00:48:04,VALID,1000.84,VALID,0,VALID,87.7101,VALID,0,VALID,23.3305,VALID,350,VALID,0.314844,
2010-08-13, 00:49:04,VALID,1000.85,VALID,0,VALID,88.0458,VALID,0,VALID,23.2719,VALID,350,VALID,0.140625,
2010-08-13, 00:50:04,VALID,1000.8,VALID,0,VALID,88.2594,VALID,0,VALID,23.2117,VALID,26,VALID,1.40859,
2010-08-13, 00:51:04,VALID,1000.75,VALID,0,VALID,88.4273,VALID,0,VALID,23.1939,VALID,18,VALID,2.00977,
2010-08-13, 00:52:04,VALID,1000.75,VALID,0,VALID,88.496,VALID,0,VALID,23.1744,VALID,352,VALID,1.77227,
2010-08-13, 00:53:04,VALID,1000.74,VALID,0,VALID,88.6333,VALID,0,VALID,23.1549,VALID,350,VALID,1.53398,
2010-08-13, 00:54:04,VALID,1000.71,VALID,0,VALID,88.3357,VALID,0,VALID,23.1744,VALID,6,VALID,1.93398,
2010-08-13, 00:55:04,VALID,1000.63,VALID,0,VALID,87.9771,VALID,0,VALID,23.2329,VALID,5,VALID,1.78945,
2010-08-13, 00:56:04,VALID,1000.66,VALID,0,VALID,87.672,VALID,0,VALID,23.311,VALID,350,VALID,0.991406,
2010-08-13, 00:57:04,VALID,1000.64,VALID,0,VALID,87.7177,VALID,0,VALID,23.35,VALID,343,VALID,0.831641,
2010-08-13, 00:58:04,VALID,1000.59,VALID,0,VALID,87.5499,VALID,0,VALID,23.389,VALID,343,VALID,0.59375,
2010-08-13, 00:59:04,VALID,1000.57,VALID,0,VALID,87.5575,VALID,0,VALID,23.4085,VALID,343,VALID,0.754687,
2010-08-13, 01:00:04,VALID,1000.52,VALID,0,VALID,87.5499,VALID,0,VALID,23.4067,VALID,321,VALID,0.792578,
2010-08-13, 01:01:04,VALID,1000.51,VALID,0,VALID,87.3515,VALID,0,VALID,23.4475,VALID,330,VALID,1.14883,
2010-08-13, 01:02:04,VALID,1000.52,VALID,0,VALID,87.3134,VALID,0,VALID,23.4866,VALID,331,VALID,0.914453,
2010-08-13, 01:03:04,VALID,1000.47,VALID,0,VALID,87.4889,VALID,0,VALID,23.4653,VALID,332,VALID,1.0668,
2010-08-13, 01:04:04,VALID,1000.48,VALID,0,VALID,87.8246,VALID,0,VALID,23.4475,VALID,337,VALID,1.10859,
2010-08-13, 01:05:04,VALID,1000.48,VALID,0,VALID,88.0916,VALID,0,VALID,23.389,VALID,337,VALID,0.842969,
2010-08-13, 01:06:04,VALID,1000.45,VALID,0,VALID,88.3281,VALID,0,VALID,23.35,VALID,336,VALID,0.610547,
2010-08-13, 01:07:04,VALID,1000.45,VALID,0,VALID,88.1755,VALID,0,VALID,23.3695,VALID,339,VALID,1.07422,
2010-08-13, 01:08:04,VALID,1000.44,VALID,0,VALID,87.6567,VALID,0,VALID,23.4475,VALID,352,VALID,0.896484,
2010-08-13, 01:09:04,VALID,1000.42,VALID,0,VALID,87.4812,VALID,0,VALID,23.4866,VALID,356,VALID,0.902734,
2010-08-13, 01:10:04,VALID,1000.41,VALID,0,VALID,87.2294,VALID,0,VALID,23.5061,VALID,357,VALID,0.636719,
2010-08-13, 01:11:04,VALID,1000.37,VALID,0,VALID,87.1608,VALID,0,VALID,23.5451,VALID,357,VALID,0.437891,
2010-08-13, 01:12:04,VALID,1000.39,VALID,0,VALID,87.2447,VALID,0,VALID,23.5256,VALID,357,VALID,0.28125,
2010-08-13, 01:13:04,VALID,1000.38,VALID,0,VALID,87.4049,VALID,0,VALID,23.5061,VALID,357,VALID,0.361328,
2010-08-13, 01:14:04,VALID,1000.4,VALID,0,VALID,87.5194,VALID,0,VALID,23.4671,VALID,357,VALID,0,
2010-08-13, 01:15:04,VALID,1000.41,VALID,0,VALID,87.7177,VALID,0,VALID,23.4671,VALID,357,VALID,0.0496094,
2010-08-13, 01:16:04,VALID,1000.42,VALID,0,VALID,87.5041,VALID,0,VALID,23.4263,VALID,95,VALID,1.08477,
2010-08-13, 01:17:04,VALID,1000.44,VALID,0,VALID,87.4507,VALID,0,VALID,23.4263,VALID,110,VALID,1.05742,
2010-08-13, 01:18:04,VALID,1000.47,VALID,0,VALID,87.7559,VALID,0,VALID,23.4085,VALID,144,VALID,1.53047,
2010-08-13, 01:19:04,VALID,1000.45,VALID,0,VALID,88.1145,VALID,0,VALID,23.35,VALID,137,VALID,1.34609,
2010-08-13, 01:20:04,VALID,1000.43,VALID,0,VALID,88.084,VALID,0,VALID,23.3305,VALID,132,VALID,1.54102,
2010-08-13, 01:21:04,VALID,1000.43,VALID,0,VALID,87.7177,VALID,0,VALID,23.4085,VALID,93,VALID,0.942578,
2010-08-13, 01:22:04,VALID,1000.42,VALID,0,VALID,87.0311,VALID,0,VALID,23.4866,VALID,96,VALID,1.21836,
2010-08-13, 01:23:04,VALID,1000.42,VALID,0,VALID,86.7106,VALID,0,VALID,23.6036,VALID,75,VALID,0.904688,
2010-08-13, 01:24:04,VALID,1000.38,VALID,0,VALID,86.558,VALID,0,VALID,23.6427,VALID,85,VALID,0.999609,
2010-08-13, 01:25:04,VALID,1000.42,VALID,0,VALID,86.5504,VALID,0,VALID,23.6622,VALID,94,VALID,0.610937,
2010-08-13, 01:26:04,VALID,1000.43,VALID,0,VALID,86.5428,VALID,0,VALID,23.6622,VALID,121,VALID,0.492188,
2010-08-13, 01:27:04,VALID,1000.41,VALID,0,VALID,86.4741,VALID,0,VALID,23.6622,VALID,147,VALID,0.854688,
2010-08-13, 01:28:04,VALID,1000.44,VALID,0,VALID,86.3902,VALID,0,VALID,23.6817,VALID,148,VALID,0.976953,
2010-08-13, 01:29:04,VALID,1000.42,VALID,0,VALID,86.4283,VALID,0,VALID,23.7207,VALID,149,VALID,1.56172,
2010-08-13, 01:30:04,VALID,1000.48,VALID,0,VALID,86.4741,VALID,0,VALID,23.7402,VALID,149,VALID,1.96289,
2010-08-13, 01:31:04,VALID,1000.48,VALID,0,VALID,86.8403,VALID,0,VALID,23.7597,VALID,146,VALID,2.06641,
2010-08-13, 01:32:04,VALID,1000.46,VALID,0,VALID,87.1074,VALID,0,VALID,23.7207,VALID,153,VALID,1.32266,
2010-08-13, 01:33:04,VALID,1000.43,VALID,0,VALID,87.1455,VALID,0,VALID,23.6799,VALID,137,VALID,1.04727,
2010-08-13, 01:34:04,VALID,1000.41,VALID,0,VALID,87.1532,VALID,0,VALID,23.6622,VALID,133,VALID,1.08711,
2010-08-13, 01:35:04,VALID,1000.39,VALID,0,VALID,87.0921,VALID,0,VALID,23.6622,VALID,131,VALID,0.728516,
2010-08-13, 01:36:04,VALID,1000.36,VALID,0,VALID,87.0692,VALID,0,VALID,23.6427,VALID,131,VALID,0.5375,
2010-08-13, 01:37:04,VALID,1000.34,VALID,0,VALID,87.1455,VALID,0,VALID,23.6622,VALID,131,VALID,0.425781,
2010-08-13, 01:38:04,VALID,1000.36,VALID,0,VALID,87.0616,VALID,0,VALID,23.6427,VALID,131,VALID,0.446094,
2010-08-13, 01:39:04,VALID,1000.34,VALID,0,VALID,87.0387,VALID,0,VALID,23.6622,VALID,131,VALID,0.562109,
2010-08-13, 01:40:04,VALID,1000.35,VALID,0,VALID,86.9853,VALID,0,VALID,23.6817,VALID,131,VALID,0.542188,
2010-08-13, 01:41:04,VALID,1000.32,VALID,0,VALID,86.8937,VALID,0,VALID,23.6799,VALID,131,VALID,0.623047,
2010-08-13, 01:42:04,VALID,1000.35,VALID,0,VALID,86.703,VALID,0,VALID,23.6994,VALID,124,VALID,0.958594,
2010-08-13, 01:43:04,VALID,1000.31,VALID,0,VALID,86.7411,VALID,0,VALID,23.7597,VALID,121,VALID,1.03984,
2010-08-13, 01:44:04,VALID,1000.28,VALID,0,VALID,86.8022,VALID,0,VALID,23.7793,VALID,106,VALID,0.967188,
2010-08-13, 01:45:04,VALID,1000.25,VALID,0,VALID,86.9929,VALID,0,VALID,23.7775,VALID,90,VALID,0.921875,
2010-08-13, 01:46:04,VALID,1000.25,VALID,0,VALID,87.2294,VALID,0,VALID,23.7793,VALID,81,VALID,0.855078,
2010-08-13, 01:47:04,VALID,1000.25,VALID,0,VALID,87.4354,VALID,0,VALID,23.7402,VALID,53,VALID,0.376172,
2010-08-13, 01:48:04,VALID,1000.26,VALID,0,VALID,87.588,VALID,0,VALID,23.7189,VALID,53,VALID,0,
2010-08-13, 01:49:04,VALID,1000.28,VALID,0,VALID,87.4202,VALID,0,VALID,23.7012,VALID,342,VALID,0.486328,
2010-08-13, 01:50:04,VALID,1000.3,VALID,0,VALID,87.4965,VALID,0,VALID,23.7012,VALID,306,VALID,0.619922,
2010-08-13, 01:51:04,VALID,1000.3,VALID,0,VALID,87.321,VALID,0,VALID,23.7207,VALID,306,VALID,0.625,
2010-08-13, 01:52:04,VALID,1000.3,VALID,0,VALID,87.3363,VALID,0,VALID,23.7402,VALID,306,VALID,0.571484,
2010-08-13, 01:53:04,VALID,1000.29,VALID,0,VALID,87.3057,VALID,0,VALID,23.7207,VALID,306,VALID,0.514844,
2010-08-13, 01:54:04,VALID,1000.28,VALID,0,VALID,87.321,VALID,0,VALID,23.7207,VALID,360,VALID,0.574609,
2010-08-13, 01:55:04,VALID,1000.29,VALID,0,VALID,87.4049,VALID,0,VALID,23.6994,VALID,12,VALID,0.292969,
2010-08-13, 01:56:04,VALID,1000.3,VALID,0,VALID,87.6414,VALID,0,VALID,23.6994,VALID,12,VALID,0.0101562,
2010-08-13, 01:57:04,VALID,1000.31,VALID,0,VALID,87.5804,VALID,0,VALID,23.7012,VALID,12,VALID,0,
2010-08-13, 01:58:04,VALID,1000.28,VALID,0,VALID,87.5728,VALID,0,VALID,23.6604,VALID,12,VALID,0,
2010-08-13, 01:59:04,VALID,1000.27,VALID,0,VALID,87.4126,VALID,0,VALID,23.6817,VALID,8,VALID,0.406641,
2010-08-13, 02:00:04,VALID,1000.31,VALID,0,VALID,87.2523,VALID,0,VALID,23.7207,VALID,315,VALID,0.909766,
2010-08-13, 02:01:04,VALID,1000.26,VALID,0,VALID,86.6649,VALID,0,VALID,23.7597,VALID,332,VALID,1.38125,
2010-08-13, 02:02:04,VALID,1000.25,VALID,0,VALID,84.9787,VALID,0,VALID,23.8963,VALID,353,VALID,1.52383,
2010-08-13, 02:03:04,VALID,1000.26,VALID,0,VALID,83.6817,VALID,0,VALID,24.0897,VALID,338,VALID,1.62852,
2010-08-13, 02:04:04,VALID,1000.25,VALID,0,VALID,83.056,VALID,0,VALID,24.2263,VALID,351,VALID,1.05938,
2010-08-13, 02:05:04,VALID,1000.25,VALID,0,VALID,83.4452,VALID,0,VALID,24.3043,VALID,333,VALID,1.02734,
2010-08-13, 02:06:04,VALID,1000.23,VALID,0,VALID,83.8495,VALID,0,VALID,24.2866,VALID,329,VALID,0.821484,
2010-08-13, 02:07:04,VALID,1000.21,VALID,0,VALID,84.5591,VALID,0,VALID,24.1891,VALID,329,VALID,0.585547,
2010-08-13, 02:08:04,VALID,1000.22,VALID,0,VALID,85.1237,VALID,0,VALID,24.111,VALID,329,VALID,0.518359,
2010-08-13, 02:09:04,VALID,1000.2,VALID,0,VALID,85.1618,VALID,0,VALID,24.072,VALID,329,VALID,0.534766,
2010-08-13, 02:10:04,VALID,1000.15,VALID,0,VALID,85.5967,VALID,0,VALID,24.0134,VALID,329,VALID,0.516016,
2010-08-13, 02:11:04,VALID,1000.17,VALID,0,VALID,86.2529,VALID,0,VALID,23.9549,VALID,332,VALID,0.520703,
2010-08-13, 02:12:04,VALID,1000.16,VALID,0,VALID,86.7106,VALID,0,VALID,23.8963,VALID,332,VALID,0.307813,
2010-08-13, 02:13:04,VALID,1000.11,VALID,0,VALID,86.8556,VALID,0,VALID,23.8183,VALID,332,VALID,0.257422,
2010-08-13, 02:14:04,VALID,1000.12,VALID,0,VALID,87.0311,VALID,0,VALID,23.7793,VALID,332,VALID,0.119531,
2010-08-13, 02:15:04,VALID,1000.1,VALID,0,VALID,86.9853,VALID,0,VALID,23.7402,VALID,332,VALID,0.226953,
2010-08-13, 02:16:04,VALID,1000.08,VALID,0,VALID,87.1532,VALID,0,VALID,23.7207,VALID,332,VALID,0,
2010-08-13, 02:17:04,VALID,1000.07,VALID,0,VALID,87.0997,VALID,0,VALID,23.7012,VALID,332,VALID,0,
2010-08-13, 02:18:04,VALID,1000.07,VALID,0,VALID,87.0769,VALID,0,VALID,23.6817,VALID,332,VALID,0,
2010-08-13, 02:19:04,VALID,1000.06,VALID,0,VALID,87.3897,VALID,0,VALID,23.6622,VALID,332,VALID,0,
2010-08-13, 02:20:04,VALID,1000.03,VALID,0,VALID,87.3363,VALID,0,VALID,23.6427,VALID,332,VALID,0,
2010-08-13, 02:21:04,VALID,999.999,VALID,0,VALID,87.7864,VALID,0,VALID,23.6232,VALID,360,VALID,0.604688,
2010-08-13, 02:22:04,VALID,1000.01,VALID,0,VALID,87.6033,VALID,0,VALID,23.6036,VALID,50,VALID,0.915234,
2010-08-13, 02:23:04,VALID,999.994,VALID,0,VALID,88.0153,VALID,0,VALID,23.6232,VALID,57,VALID,0.817969,
2010-08-13, 02:24:04,VALID,999.975,VALID,0,VALID,87.794,VALID,0,VALID,23.6232,VALID,51,VALID,0.675781,
2010-08-13, 02:25:04,VALID,999.999,VALID,0,VALID,88.0458,VALID,0,VALID,23.6427,VALID,51,VALID,0.68125,
2010-08-13, 02:26:04,VALID,999.957,VALID,0,VALID,88.2213,VALID,0,VALID,23.6019,VALID,51,VALID,0.788672,
2010-08-13, 02:27:04,VALID,999.947,VALID,0,VALID,88.351,VALID,0,VALID,23.5841,VALID,48,VALID,0.588281,
2010-08-13, 02:28:04,VALID,999.958,VALID,0,VALID,88.4273,VALID,0,VALID,23.5646,VALID,34,VALID,0.552734,
2010-08-13, 02:29:04,VALID,999.966,VALID,0,VALID,88.5189,VALID,0,VALID,23.5043,VALID,18,VALID,0.436719,
2010-08-13, 02:30:04,VALID,999.973,VALID,0,VALID,88.618,VALID,0,VALID,23.4848,VALID,11,VALID,0.41875,
2010-08-13, 02:31:04,VALID,999.984,VALID,0,VALID,88.7325,VALID,0,VALID,23.4671,VALID,358,VALID,0,
2010-08-13, 02:32:04,VALID,999.986,VALID,0,VALID,88.8927,VALID,0,VALID,23.428,VALID,358,VALID,0,
2010-08-13, 02:33:04,VALID,999.986,VALID,0,VALID,88.9537,VALID,0,VALID,23.4085,VALID,358,VALID,0,
2010-08-13, 02:34:04,VALID,999.943,VALID,0,VALID,89.114,VALID,0,VALID,23.389,VALID,358,VALID,0.00234375,
2010-08-13, 02:35:05,VALID,999.973,VALID,0,VALID,89.0987,VALID,0,VALID,23.3677,VALID,23,VALID,0.601172,
2010-08-13, 02:36:05,VALID,999.965,VALID,0,VALID,89.0148,VALID,0,VALID,23.3482,VALID,44,VALID,0.622266,
2010-08-13, 02:37:05,VALID,999.948,VALID,0,VALID,88.824,VALID,0,VALID,23.389,VALID,44,VALID,0.398047,
2010-08-13, 02:38:05,VALID,999.963,VALID,0,VALID,88.6486,VALID,0,VALID,23.4085,VALID,44,VALID,0.302344,
2010-08-13, 02:39:05,VALID,999.912,VALID,0,VALID,88.5265,VALID,0,VALID,23.428,VALID,44,VALID,0.236719,
2010-08-13, 02:40:05,VALID,999.914,VALID,0,VALID,88.5951,VALID,0,VALID,23.428,VALID,44,VALID,0,
2010-08-13, 02:41:05,VALID,999.907,VALID,0,VALID,88.4807,VALID,0,VALID,23.4067,VALID,44,VALID,0,
2010-08-13, 02:42:05,VALID,999.915,VALID,0,VALID,88.5112,VALID,0,VALID,23.428,VALID,44,VALID,0,
2010-08-13, 02:43:05,VALID,999.866,VALID,0,VALID,88.6409,VALID,0,VALID,23.4067,VALID,44,VALID,0,
2010-08-13, 02:44:05,VALID,999.812,VALID,0,VALID,88.5875,VALID,0,VALID,23.4085,VALID,44,VALID,0,
2010-08-13, 02:45:05,VALID,999.81,VALID,0,VALID,88.7249,VALID,0,VALID,23.4085,VALID,46,VALID,0.490625,
2010-08-13, 02:46:05,VALID,999.823,VALID,0,VALID,88.5723,VALID,0,VALID,23.4085,VALID,84,VALID,0.683594,
2010-08-13, 02:47:05,VALID,999.808,VALID,0,VALID,88.2747,VALID,0,VALID,23.4085,VALID,84,VALID,0.896875,
2010-08-13, 02:48:05,VALID,999.804,VALID,0,VALID,88.2289,VALID,0,VALID,23.389,VALID,79,VALID,0.741016,
2010-08-13, 02:49:05,VALID,999.857,VALID,0,VALID,88.1526,VALID,0,VALID,23.389,VALID,94,VALID,1.24375,
2010-08-13, 02:50:05,VALID,999.836,VALID,0,VALID,88.1832,VALID,0,VALID,23.3695,VALID,92,VALID,1.55742,
2010-08-13, 02:51:05,VALID,999.845,VALID,0,VALID,88.5417,VALID,0,VALID,23.35,VALID,102,VALID,1.57969,
2010-08-13, 02:52:05,VALID,999.831,VALID,0,VALID,89.0758,VALID,0,VALID,23.2897,VALID,111,VALID,1.50586,
2010-08-13, 02:53:05,VALID,999.814,VALID,0,VALID,89.175,VALID,0,VALID,23.2915,VALID,115,VALID,1.33047,
2010-08-13, 02:54:05,VALID,999.792,VALID,0,VALID,89.2208,VALID,0,VALID,23.2915,VALID,126,VALID,0.971484,
2010-08-13, 02:55:05,VALID,999.774,VALID,0,VALID,89.3581,VALID,0,VALID,23.2719,VALID,133,VALID,0.917578,
2010-08-13, 02:56:05,VALID,999.768,VALID,0,VALID,89.4649,VALID,0,VALID,23.2524,VALID,132,VALID,0.967188,
2010-08-13, 02:57:05,VALID,999.752,VALID,0,VALID,89.5565,VALID,0,VALID,23.2312,VALID,127,VALID,0.937109,
2010-08-13, 02:58:05,VALID,999.786,VALID,0,VALID,89.6328,VALID,0,VALID,23.2329,VALID,122,VALID,1.09766,
2010-08-13, 02:59:05,VALID,999.792,VALID,0,VALID,89.732,VALID,0,VALID,23.1921,VALID,129,VALID,1.25703,
2010-08-13, 03:00:05,VALID,999.796,VALID,0,VALID,89.5946,VALID,0,VALID,23.2134,VALID,139,VALID,1.12891,
2010-08-13, 03:01:05,VALID,999.809,VALID,0,VALID,89.236,VALID,0,VALID,23.2134,VALID,157,VALID,1.20234,
2010-08-13, 03:02:05,VALID,999.817,VALID,0,VALID,89.1216,VALID,0,VALID,23.2719,VALID,182,VALID,1.27773,
2010-08-13, 03:03:05,VALID,999.848,VALID,0,VALID,88.6638,VALID,0,VALID,23.3695,VALID,186,VALID,1.49297,
2010-08-13, 03:04:05,VALID,999.848,VALID,0,VALID,88.5036,VALID,0,VALID,23.4475,VALID,170,VALID,1.69648,
2010-08-13, 03:05:05,VALID,999.865,VALID,0,VALID,88.5112,VALID,0,VALID,23.5043,VALID,188,VALID,1.34766,
2010-08-13, 03:06:05,VALID,999.844,VALID,0,VALID,88.1221,VALID,0,VALID,23.5841,VALID,179,VALID,1.59102,
2010-08-13, 03:07:05,VALID,999.822,VALID,0,VALID,87.7025,VALID,0,VALID,23.6232,VALID,165,VALID,1.30625,
2010-08-13, 03:08:05,VALID,999.814,VALID,0,VALID,87.5804,VALID,0,VALID,23.6232,VALID,165,VALID,0.983203,
2010-08-13, 03:09:05,VALID,999.818,VALID,0,VALID,87.6567,VALID,0,VALID,23.5841,VALID,166,VALID,1.13906,
2010-08-13, 03:10:05,VALID,999.809,VALID,0,VALID,87.6414,VALID,0,VALID,23.5433,VALID,167,VALID,1.07656,
2010-08-13, 03:11:05,VALID,999.799,VALID,0,VALID,87.6186,VALID,0,VALID,23.5238,VALID,167,VALID,0.897266,
2010-08-13, 03:12:05,VALID,999.781,VALID,0,VALID,87.6338,VALID,0,VALID,23.4848,VALID,164,VALID,0.840625,
2010-08-13, 03:13:05,VALID,999.798,VALID,0,VALID,87.7788,VALID,0,VALID,23.4671,VALID,160,VALID,0.639063,
2010-08-13, 03:14:05,VALID,999.754,VALID,0,VALID,88.0992,VALID,0,VALID,23.428,VALID,160,VALID,0.452734,
2010-08-13, 03:15:05,VALID,999.706,VALID,0,VALID,88.2137,VALID,0,VALID,23.3872,VALID,160,VALID,0.232812,
2010-08-13, 03:16:05,VALID,999.697,VALID,0,VALID,88.2137,VALID,0,VALID,23.3695,VALID,160,VALID,0.00664063,
2010-08-13, 03:17:05,VALID,999.68,VALID,0,VALID,88.4426,VALID,0,VALID,23.311,VALID,160,VALID,0,
2010-08-13, 03:18:05,VALID,999.615,VALID,0,VALID,88.5799,VALID,0,VALID,23.2719,VALID,160,VALID,0.822266,
2010-08-13, 03:19:05,VALID,999.661,VALID,0,VALID,88.7477,VALID,0,VALID,23.2117,VALID,336,VALID,0.973437,
2010-08-13, 03:20:05,VALID,999.665,VALID,0,VALID,88.9309,VALID,0,VALID,23.1549,VALID,336,VALID,0.442578,
2010-08-13, 03:21:05,VALID,999.668,VALID,0,VALID,89.236,VALID,0,VALID,23.0751,VALID,336,VALID,0.476563,
2010-08-13, 03:22:05,VALID,999.697,VALID,0,VALID,89.5946,VALID,0,VALID,23.0964,VALID,336,VALID,0.694922,
2010-08-13, 03:23:05,VALID,999.694,VALID,0,VALID,89.8083,VALID,0,VALID,23.0556,VALID,336,VALID,0.778906,
2010-08-13, 03:24:05,VALID,999.73,VALID,0,VALID,89.8693,VALID,0,VALID,23.0556,VALID,336,VALID,0.788281,
2010-08-13, 03:25:05,VALID,999.758,VALID,0,VALID,89.7243,VALID,0,VALID,23.0769,VALID,336,VALID,0.434766,
2010-08-13, 03:26:05,VALID,999.764,VALID,0,VALID,89.5489,VALID,0,VALID,23.0573,VALID,336,VALID,0.0566406,
2010-08-13, 03:27:05,VALID,999.75,VALID,0,VALID,89.5336,VALID,0,VALID,22.9988,VALID,336,VALID,0.0859375,
2010-08-13, 03:28:05,VALID,999.731,VALID,0,VALID,90.0219,VALID,0,VALID,22.9988,VALID,341,VALID,0.734375,
2010-08-13, 03:29:05,VALID,999.741,VALID,0,VALID,89.6862,VALID,0,VALID,22.9403,VALID,32,VALID,0.560156,
2010-08-13, 03:30:05,VALID,999.756,VALID,0,VALID,89.6175,VALID,0,VALID,22.9013,VALID,32,VALID,0.21875,
2010-08-13, 03:31:05,VALID,999.772,VALID,0,VALID,89.8922,VALID,0,VALID,22.8623,VALID,114,VALID,0.580078,
2010-08-13, 03:32:05,VALID,999.784,VALID,0,VALID,89.9456,VALID,0,VALID,22.8232,VALID,129,VALID,1.2168,
2010-08-13, 03:33:05,VALID,999.775,VALID,0,VALID,90.0066,VALID,0,VALID,22.8232,VALID,128,VALID,0.986719,
2010-08-13, 03:34:05,VALID,999.752,VALID,0,VALID,90.411,VALID,0,VALID,22.8623,VALID,104,VALID,0.986328,
2010-08-13, 03:35:05,VALID,999.759,VALID,0,VALID,89.7777,VALID,0,VALID,22.9403,VALID,80,VALID,1.08516,
2010-08-13, 03:36:05,VALID,999.741,VALID,0,VALID,89.5794,VALID,0,VALID,22.9598,VALID,88,VALID,1.18125,
2010-08-13, 03:37:05,VALID,999.747,VALID,0,VALID,89.6633,VALID,0,VALID,22.9403,VALID,107,VALID,1.32695,
2010-08-13, 03:38:05,VALID,999.728,VALID,0,VALID,90.1897,VALID,0,VALID,22.9403,VALID,109,VALID,1.04609,
2010-08-13, 03:39:05,VALID,999.663,VALID,0,VALID,90.06,VALID,0,VALID,22.9403,VALID,70,VALID,0.735156,
2010-08-13, 03:40:05,VALID,999.658,VALID,0,VALID,89.8006,VALID,0,VALID,22.9793,VALID,36,VALID,1.15273,
2010-08-13, 03:41:05,VALID,999.637,VALID,0,VALID,89.2055,VALID,0,VALID,22.9971,VALID,36,VALID,1.41055,
2010-08-13, 03:42:05,VALID,999.636,VALID,0,VALID,88.8546,VALID,0,VALID,23.0573,VALID,74,VALID,1.27891,
2010-08-13, 03:43:05,VALID,999.634,VALID,0,VALID,88.5875,VALID,0,VALID,23.0964,VALID,92,VALID,2.08203,
2010-08-13, 03:44:05,VALID,999.589,VALID,0,VALID,89.0224,VALID,0,VALID,23.0769,VALID,68,VALID,1.92695,
2010-08-13, 03:45:05,VALID,999.533,VALID,0,VALID,88.9843,VALID,0,VALID,23.0769,VALID,27,VALID,2.15937,
2010-08-13, 03:46:05,VALID,999.554,VALID,0,VALID,89.0148,VALID,0,VALID,23.0378,VALID,354,VALID,1.93164,
2010-08-13, 03:47:05,VALID,999.511,VALID,0,VALID,88.7249,VALID,0,VALID,23.1354,VALID,340,VALID,1.7793,